Location: Waco, TX
(31.5480°N, 97.1670°W)
Time: 16:13:40
(UTC-05:00)

ISS - Pass Details

Date: 14 September 2019
Orbit: 411 x 421 km, 51.6° (Epoch: 17 September)

Event Time Altitude Azimuth Distance (km) Brightness Sun altitude
Rises 05:27:18 0° 329° (NNW) 2,349 - -22.6°
Reaches altitude 10° 05:29:48 10° 348° (NNW) 1,487 - -22.1°
Exits shadow 05:29:53 10° 349° (N) 1,465 -0.9 -22.1°
Maximum altitude 05:32:17 19° 36° (NE) 1,052 -1.1 -21.6°
Drops below altitude 10° 05:34:47 10° 85° (E) 1,486 0.1 -21.1°
Sets 05:37:17 0° 103° (ESE) 2,349 1.0 -20.6°
